Tracking 19644 objects as of 26-Apr-2019
HD Live streaming from Space Station
objects crossing your sky now

CZ-4 DEB

Track CZ-4 DEB now!
10-day predictions


NORAD ID: 26257
Int'l Code: 1999-057ET
Perigee: 581.8 km
Apogee: 594.9 km
Inclination: 98.6 °
Period: 96.3 minutes
Semi major axis: 6959 km
RCS: 0.0054 m2 (small)
Launch date: October 14, 1999
Source: People's Republic of China (PRC)
Launch site: Taiyaun Space Center, China (TSC)

Note: This is SATELLITE DEBRIS
aabbcc
Your satellite tracking list
Your tracking list is empty




NASA's NSSDC Master Catalog

Two Line Element Set (TLE):
1 26257U 99057ET  19115.45051561 +.00001144 +00000-0 +10984-3 0  9991
2 26257 098.5571 294.0326 0009390 315.0468 044.9989 14.95367114028186
Source of the keplerian elements: AFSPC